Showing default

SHIJIAN 6 05B (SJ-6 05B), 49962

Orbit data source: Space-Track

SHIJIAN 6 05B (SJ-6 05B), 49962 is a payload satellite owned by CASC (CN) in SSO that was launched on Fri, 10 Dec 2021 UTC via a CHANG ZHENG 4B launch vehicle from the Jiuquan Satellite Launch Center, China (JSC). Payload-class satellites include a variety of spacecraft equipped with specific instruments for various scientific and technological missions. These include communications satellites like Starlink; space stations such as the ISS; scientific satellites like the Hubble; Earth observation satellites from companies like Planet Labs, Umbra, and HawkEye 360; GPS; miniature CubeSats for education and research; and military/defense satellites.

Loading next visibility...
Identifier
49962, 2021-122B
Orbit
SSO
Country
Flag of CNCN / PRC
Related business
Manufacturer
SAST
Mission
Operational Defense Sigint
Bus & Motor
SJ6-5A, Unknown motor
Mass
~350 kg wet, ~350 kg dry
Launch date (UTC)
2021-12-10 (5 years ago)
Launch vehicle
CHANG ZHENG 4B
Launch site
Jiuquan Satellite Launch Center, China (JSC)
Object type
Payload
Rocket body
Debris
Shape & HBR
Box + 2 Pan, 2.0 m
Radar Cross Section
2.315 m², Large (>1 m²)

Expand to show TLE details & history
Last TLE update: 2 days ago

TLE from 2 days ago
0 SHIJIAN 6 05B (SJ-6 05B)
1 49962U 21122B   26171.42201921  .00002755  00000-0  16438-3 0  9990
2 49962  97.3790 151.9413 0002848  66.5408 293.6122 15.11937038250237
Epoch: 2026-06-20T10:07Z
TLE epoch observation values (Epoch: 2026-06-20T10:07:42.459Z)
Latitude
-0.00004°
Longitude
91.37752°
Altitude
532.586 km
Speed
7.597 km/s
True Right ascension
10h 07m 45s
True Declination
0° 00' 00"
Sunlit
Object was in daylight at epoch
Visualization orbit readout
Latitude
Unknown
Longitude
Unknown
Altitude
Unknown
Speed
Unknown
Apparent Right ascension
Unknown
Apparent Declination
Unknown
Sunlit
N/A
Visualization observer readout
Local Sidereal Time
21:47:54
Azimuth
Unknown
Elevation
Unknown
Doppler factor
Unknown
Orbital elements
Apogee altitude
529.235 km
Perigee altitude
525.302 km
Semi-major axis
6,905.406 km
Eccentricity
0.00028
Inclination
97.379°
RAAN
151.9413°
Arg. of periapsis
66.5408°
True anomaly
293.58229°
Mean anomaly
293.6122°
Eccentric anomaly
293.59725°
Mean motion
3.78233 °/min
Orbital period
95.18 mins
BSTAR
0.00016438
Loading maneuver chart data...
Computing Atmospheric mass density...
Loading historical data...
Loading historical data...
Loading historical data...
Loading historical data...
Loading historical data...
Loading historical data...
Loading historical data...

Documentation

Showing up to 5 results
|